Location: ??
(35.4032°N, 139.3073°E)
Time: 10:46:00
(UTC+00:00)

ALOS - Pass Details

Date: 13 April 2024
Orbit: 674 x 675 km, 98.0° (Epoch: 21 May)

Event Time Altitude Azimuth Distance (km) Brightness Sun altitude
Rises 17:33:35 0° 10° (N) 3,037 6.3 -29.8°
Reaches altitude 10° 17:35:50 10° 8° (N) 2,118 5.3 -29.4°
Enters shadow 17:38:52 41° 359° (N) 985 3.2 -29.0°
